Location: *
(47.2969°N, 10.2930°E)
Time: 07:00:37
(UTC+00:00)

RESURS DK-1 - Pass Details

Date: 09 April 2020
Orbit: 557 x 561 km, 69.9° (Epoch: 02 June)

Event Time Altitude Azimuth Distance (km) Brightness Sun altitude
Rises 20:44:32 0° 329° (NNW) 2,760 7.2 -24.9°
Reaches altitude 10° 20:46:45 10° 328° (NNW) 1,859 6.0 -25.1°
Enters shadow 20:50:16 60° 304° (WNW) 645 2.8 -25.5°
